Meteo orario Abay

Oggi, 9 Marzo, Martedi

Tempo Temperatura Precipitazioni Vento Pressione Umidità
00:00 +7°C° 0 mm 1 m/s 721 mm Hg 75%
01:00 +7°C° 0 mm 1 m/s 720 mm Hg 78%
02:00 +6°C° 0 mm 1 m/s 720 mm Hg 81%
03:00 +6°C° 0 mm 1 m/s 720 mm Hg 83%
04:00 +5°C° 0 mm 1 m/s 719 mm Hg 84%
05:00 +5°C° 0 mm 1 m/s 719 mm Hg 86%
06:00 +6°C° 0 mm 1 m/s 719 mm Hg 82%
07:00 +6°C° 0 mm 1 m/s 719 mm Hg 78%
08:00 +7°C° 0 mm 1 m/s 718 mm Hg 74%
09:00 +9°C° 0 mm 1 m/s 718 mm Hg 65%
10:00 +11°C° 0 mm 1 m/s 718 mm Hg 55%
11:00 +13°C° 0 mm 1 m/s 717 mm Hg 46%
12:00 +14°C° 0 mm 2 m/s 717 mm Hg 42%
13:00 +15°C° 0 mm 2 m/s 716 mm Hg 38%
14:00 +16°C° 0 mm 3 m/s 716 mm Hg 34%
15:00 +16°C° 0 mm 3 m/s 716 mm Hg 36%
16:00 +14°C° 0 mm 3 m/s 715 mm Hg 39%
17:00 +14°C° 0 mm 3 m/s 715 mm Hg 41%
18:00 +13°C° 0 mm 3 m/s 715 mm Hg 48%
19:00 +11°C° 0 mm 3 m/s 715 mm Hg 54%
20:00 +10°C° 0 mm 2 m/s 714 mm Hg 61%
21:00 +9°C° 0 mm 2 m/s 714 mm Hg 61%
22:00 +9°C° 0 mm 2 m/s 713 mm Hg 61%
23:00 +9°C° 0 mm 2 m/s 713 mm Hg 60%

Domani, 10 Marzo, Mercoledi

Tempo Temperatura Precipitazioni Vento Pressione Umidità
00:00 +9°C° 0 mm 2 m/s 712 mm Hg 58%
01:00 +9°C° 0 mm 2 m/s 712 mm Hg 55%
02:00 +8°C° 0 mm 2 m/s 711 mm Hg 52%
03:00 +9°C° 0 mm 2 m/s 712 mm Hg 57%
04:00 +9°C° 0 mm 3 m/s 712 mm Hg 61%
05:00 +8°C° 0 mm 4 m/s 712 mm Hg 65%
06:00 +10°C° 0 mm 3 m/s 712 mm Hg 63%
07:00 +10°C° 0 mm 3 m/s 712 mm Hg 62%
08:00 +10°C° 0 mm 2 m/s 712 mm Hg 60%
09:00 +12°C° 0 mm 3 m/s 713 mm Hg 56%
10:00 +13°C° 0 mm 4 m/s 713 mm Hg 52%
11:00 +15°C° 0 mm 6 m/s 714 mm Hg 47%
12:00 +15°C° 0 mm 7 m/s 714 mm Hg 46%
13:00 +16°C° 0 mm 8 m/s 714 mm Hg 45%
14:00 +16°C° 0 mm 10 m/s 714 mm Hg 43%
15:00 +15°C° 0 mm 9 m/s 714 mm Hg 45%
16:00 +13°C° 0 mm 8 m/s 715 mm Hg 47%
17:00 +12°C° 0 mm 8 m/s 715 mm Hg 49%
18:00 +10°C° 0 mm 7 m/s 716 mm Hg 54%
19:00 +8°C° 0 mm 6 m/s 716 mm Hg 60%
20:00 +5°C° 0 mm 6 m/s 716 mm Hg 66%
21:00 +5°C° 1.5 mm 5 m/s 716 mm Hg 73%
22:00 +3°C° 1.5 mm 4 m/s 717 mm Hg 81%
23:00 +1°C° 1.5 mm 3 m/s 717 mm Hg 89%

Dopodomani, 11 Marzo, Giovedi

Tempo Temperatura Precipitazioni Vento Pressione Umidità
00:00 +2°C° 1 mm 2 m/s 717 mm Hg 92%
01:00 +2°C° 1 mm 1 m/s 717 mm Hg 94%
02:00 +2°C° 1 mm 1 m/s 717 mm Hg 97%
03:00 +2°C° 0.5 mm 1 m/s 717 mm Hg 97%
04:00 +2°C° 0.5 mm 1 m/s 718 mm Hg 97%
05:00 +2°C° 0.5 mm 1 m/s 718 mm Hg 96%
06:00 +2°C° 0.2 mm 1 m/s 718 mm Hg 96%
07:00 +2°C° 0.2 mm 1 m/s 719 mm Hg 96%
08:00 +2°C° 0.2 mm 1 m/s 719 mm Hg 96%
09:00 +3°C° 0 mm 1 m/s 719 mm Hg 95%
10:00 +2°C° 0 mm 2 m/s 719 mm Hg 94%
11:00 +3°C° 0 mm 2 m/s 720 mm Hg 92%
12:00 +4°C° 0 mm 2 m/s 720 mm Hg 85%
13:00 +6°C° 0 mm 1 m/s 719 mm Hg 78%
14:00 +7°C° 0 mm 1 m/s 719 mm Hg 71%
15:00 +7°C° 0 mm 1 m/s 719 mm Hg 68%
16:00 +8°C° 0 mm 1 m/s 719 mm Hg 66%
17:00 +8°C° 0 mm 1 m/s 719 mm Hg 63%
18:00 +7°C° 0 mm 1 m/s 719 mm Hg 68%
19:00 +6°C° 0 mm 1 m/s 719 mm Hg 73%
20:00 +4°C° 0 mm 2 m/s 719 mm Hg 77%
21:00 +5°C° 0 mm 1 m/s 719 mm Hg 78%
22:00 +4°C° 0 mm 1 m/s 719 mm Hg 79%
23:00 +4°C° 0 mm 1 m/s 719 mm Hg 80%

12 Marzo, Venerdi

Tempo Temperatura Precipitazioni Vento Pressione Umidità
00:00 +4°C° 0 mm 1 m/s 718 mm Hg 80%
01:00 +3°C° 0 mm 1 m/s 718 mm Hg 80%
02:00 +3°C° 0 mm 1 m/s 717 mm Hg 80%
03:00 +3°C° 0 mm 1 m/s 717 mm Hg 80%
04:00 +3°C° 0 mm 1 m/s 717 mm Hg 80%
05:00 +2°C° 0 mm 1 m/s 716 mm Hg 80%
06:00 +3°C° 0 mm 1 m/s 716 mm Hg 75%
07:00 +3°C° 0 mm 2 m/s 716 mm Hg 71%
08:00 +4°C° 0 mm 2 m/s 715 mm Hg 66%
09:00 +6°C° 0 mm 2 m/s 715 mm Hg 60%
10:00 +7°C° 0 mm 3 m/s 715 mm Hg 54%
11:00 +9°C° 0 mm 3 m/s 714 mm Hg 48%
12:00 +10°C° 0 mm 4 m/s 714 mm Hg 46%
13:00 +9°C° 0 mm 5 m/s 713 mm Hg 45%
14:00 +10°C° 0 mm 5 m/s 713 mm Hg 43%
15:00 +10°C° 0 mm 5 m/s 712 mm Hg 45%
16:00 +9°C° 0 mm 5 m/s 712 mm Hg 46%
17:00 +9°C° 0 mm 5 m/s 712 mm Hg 48%
18:00 +8°C° 0 mm 4 m/s 712 mm Hg 53%
19:00 +7°C° 0 mm 4 m/s 712 mm Hg 58%
20:00 +7°C° 0 mm 3 m/s 712 mm Hg 63%
21:00 +5°C° 0 mm 3 m/s 712 mm Hg 66%
22:00 +6°C° 0 mm 2 m/s 712 mm Hg 68%
23:00 +6°C° 0 mm 2 m/s 712 mm Hg 70%

13 Marzo, Sabato

Tempo Temperatura Precipitazioni Vento Pressione Umidità
00:00 +6°C° 0.2 mm 1 m/s 712 mm Hg 73%
01:00 +6°C° 0.2 mm 1 m/s 712 mm Hg 75%
02:00 +6°C° 0.2 mm 1 m/s 712 mm Hg 78%
03:00 +5°C° 1.4 mm 2 m/s 712 mm Hg 81%
04:00 +4°C° 1.4 mm 2 m/s 712 mm Hg 84%
05:00 +3°C° 1.4 mm 3 m/s 713 mm Hg 87%
06:00 +3°C° 0.4 mm 3 m/s 713 mm Hg 86%
07:00 +4°C° 0.4 mm 3 m/s 713 mm Hg 85%
08:00 +4°C° 0.4 mm 3 m/s 713 mm Hg 84%
09:00 +4°C° 0.1 mm 3 m/s 713 mm Hg 82%
10:00 +5°C° 0.1 mm 3 m/s 713 mm Hg 80%
11:00 +7°C° 0.1 mm 2 m/s 713 mm Hg 78%
12:00 +7°C° 0.3 mm 2 m/s 713 mm Hg 78%
13:00 +8°C° 0.3 mm 2 m/s 712 mm Hg 78%
14:00 +9°C° 0.3 mm 2 m/s 712 mm Hg 78%
15:00 +8°C° 0.9 mm 2 m/s 711 mm Hg 81%
16:00 +8°C° 0.9 mm 2 m/s 711 mm Hg 85%
17:00 +8°C° 0.9 mm 2 m/s 711 mm Hg 88%
18:00 +8°C° 1.6 mm 2 m/s 711 mm Hg 90%
19:00 +7°C° 1.6 mm 2 m/s 711 mm Hg 91%
20:00 +7°C° 1.6 mm 3 m/s 711 mm Hg 93%
21:00 +7°C° 1.2 mm 3 m/s 711 mm Hg 93%
22:00 +7°C° 1.2 mm 3 m/s 710 mm Hg 92%
23:00 +7°C° 1.2 mm 3 m/s 710 mm Hg 92%

14 Marzo, Domenica

Tempo Temperatura Precipitazioni Vento Pressione Umidità
00:00 +7°C° 0.5 mm 3 m/s 710 mm Hg 91%
01:00 +7°C° 0.5 mm 2 m/s 710 mm Hg 91%
02:00 +8°C° 0.5 mm 1 m/s 710 mm Hg 90%
03:00 +8°C° 0 mm 1 m/s 710 mm Hg 88%
04:00 +7°C° 0 mm 2 m/s 709 mm Hg 87%
05:00 +7°C° 0 mm 2 m/s 709 mm Hg 85%
06:00 +7°C° 0.2 mm 2 m/s 709 mm Hg 86%
07:00 +7°C° 0.2 mm 2 m/s 709 mm Hg 88%
08:00 +7°C° 0.2 mm 2 m/s 709 mm Hg 89%
09:00 +7°C° 1.2 mm 3 m/s 710 mm Hg 89%
10:00 +6°C° 1.2 mm 4 m/s 711 mm Hg 88%
11:00 +5°C° 1.2 mm 5 m/s 711 mm Hg 88%
12:00 +3°C° 0.7 mm 7 m/s 713 mm Hg 79%
13:00 +1°C° 0.7 mm 9 m/s 714 mm Hg 70%
14:00 -1°C° 0.7 mm 11 m/s 715 mm Hg 62%
15:00 -1°C° 0.2 mm 12 m/s 716 mm Hg 59%
16:00 -2°C° 0.2 mm 13 m/s 717 mm Hg 56%
17:00 -3°C° 0.2 mm 15 m/s 718 mm Hg 53%
18:00 -2°C° 0 mm 14 m/s 719 mm Hg 54%
19:00 -4°C° 0 mm 13 m/s 720 mm Hg 54%
20:00 -3°C° 0 mm 12 m/s 722 mm Hg 55%
21:00 -4°C° 0 mm 11 m/s 722 mm Hg 56%
22:00 -5°C° 0 mm 10 m/s 722 mm Hg 58%
23:00 -5°C° 0 mm 9 m/s 723 mm Hg 59%
Mostrare altro

Abbiamo bisogno del tuo consenso

Meteoprog e i nostri fornitori di servizi possono memorizzare e accedere a dati personali come cookie, identificatori di dispositivi o altre tecnologie simili sul tuo dispositivo e possono elaborare tali dati per personalizzare i contenuti e gli annunci, nonché fornire funzionalità dei social media e analizzarne il traffico.

  • Archiviare e/o accedere alle informazioni sul tuo dispositivo

    Cookie, identificatori di dispositivi o altre informazioni possono essere memorizzati o resi accessibili sul tuo dispositivo per le finalità sopra indicate.

  • Annunci e contenuti personalizzati, misurazione di annunci e contenuti, approfondimenti sul pubblico e sviluppo di prodotti

    Gli annunci e i contenuti possono essere personalizzati in base a un profilo. È possibile aggiungere più dati per personalizzare meglio annunci e contenuti. È possibile misurare il rendimento degli annunci e dei contenuti. È possibile ricavare informazioni sul pubblico che ha visto gli annunci e i contenuti. Tali dati possono essere utilizzati per sviluppare o migliorare l'esperienza, i sistemi e il software dell'utente.

Cliccando su “Accetto”, acconsenti all'uso di cookie, identificatori di dispositivo, web beacon o altre tecnologie simili. Puoi modificare le impostazioni nel browser del tuo dispositivo.

Per determinati scopi, è possibile fare affidamento su interessi legali, piuttosto che sul consenso. Puoi approfondire questo argomento consultando la nostra Informativa sulla privacy e sui cookie.